cliquez pour ajouter le site Runraid à vos favoris  English version (google)  Retour à l'accueil Ecrire à l'auteur du site Runraid : Michel Jourdan



Les prochaines courses


Les derniers résultats

cliquez pour visualiser la page complète relatant la chronologie des éruptions du Piton de la Fournaise
éruptions Piton de la Fournaise


Ile de La Réunion

 Diagonale des Fous 

Ecrire au créateur du site : Michel Jourdan
Contact


2019-05-05 - 10km Odyssea Maurice

Pour consulter le palmarès d'un coureur, un clic sur son nom !

Vous avez des remarques, corrections, ... sur ces résultats , un clic sur --> pour me transmettre toute information concernant les classements


10km Odyssea Maurice - 2019 : classement des 199 finishers
Place Nom Temps Cat. Club Sexe Clt/cat.
Place Nom Temps Cat. Club Sexe Clt/cat.
1 JHOWRY PRAVISH 00:39:04 M 238
2 VERNY XAVIER 00:39:05 M 207
3 PANPADOO KURSTY 00:39:49 M 145
4 DURHONE HILLVER 00:40:41 M 62
5 MUSTUN WILLIAM 00:41:18 M 138
6 RAMA YANNICK 00:41:31 M 159
7 DOOKHIT JASHVEER 00:42:27 M 56
8 DEWUF NAIKA 00:42:29 M 234
9 CAROSIN ENZO 00:42:51 M 33
10 ISRAM YUVRAJ 00:42:53 M 86
11 CICERON ERIC 00:43:55 M 42
12 BEEDAH GHANSIAM (Vimal) 00:45:19 M 20
13 NOISETTE YANNICK 00:46:33 M 143
14 SOUPIN SAMUEL 00:46:46 M 189
15 BRONZONI Edgar 00:47:02 M 233
16 CAVELIER LEA 00:47:05 SEF F 1ere F 35
17 PIANG NEE GODWYN JEREMY 00:48:08 M 154
18 MOONISAWMY JORDAN 00:48:28 M 135
19 MANSOUR GUIMALE 00:50:01 M 125
20 ROBERT FABIEN 00:50:13 M 169
21 MALOO DAVE (RAMESHWAR) 00:50:16 M 123
22 WAN BUEN CHEONG STEPHAN 00:51:06 M 211
23 MARECHAL JEAN YVAN 00:51:09 M 128
24 ANSELINE TERRY 00:51:17 M 9
25 VEERASAMY GAVIN 00:52:02 M 206
26 IMBERT ARMAND 00:52:13 M 85
27 TABANY JINO 00:52:52 M 223
28 DESCELLES NICOLAS 00:52:54 M 51
29 TEN SING DOMINIQUE 00:53:11 M 201
30 COQUET ARNAUD 00:53:42 M 46
31 SANASSEE DEVEN 00:53:49 M 181
32 FOURNIER GERALDINE 00:53:58 F 2 F 70
33 LUXIMON RAAZ 00:54:04 120
34 RAMCHARAN MALOO DAMINI 00:54:09 F 3 F 160
35 BARNARD JOHAN 00:54:18 19
36 PELLOUX MORGANE 00:54:22 F 4 F 151
37 BABOO EDLEY2 00:54:28 18
38 MOOTIEN YANON T 00:54:44 136
39 NICOLAS FEUGIEL 00:54:48 229
40 ECHAZAR RITCHIE 00:54:55 63
41 MISI BARON 00:54:57 131
42 EDDIE VALERE 00:55:24 218
43 COUSNAPAS JEAN PIERE 00:55:28 220
44 LEMOINE THIERRY 00:55:41 109
45 CHAN JOSHUA 00:55:50 38
46 CHAN CHU CHEONG CHRISTIAN 00:55:54 39
47 COX EMANUEL 00:56:00 230
48 RAGOTIN NOEL DAVID 00:56:03 158
49 AUNAY MAXIME 00:56:25 14
50 Hoair RIVIERE MARIE CHRISTINE 00:56:34 5 F 82
51 LE BLANC BERNARD 00:56:35 106
52 CARPOURON NICOL 00:56:55 34
53 SAYEGH SAM 00:56:59 182
54 PUTAVAH RAJAYE 00:57:02 221
55 CLARES JULES 00:57:34 44
56 CODRON NICOLAS 00:58:12 45
57 ELISA LUDOVIC 00:58:30 64
58 CITTA NADINE 00:58:32 6 F 43
59 LAROSE YANNICK 00:58:46 104
60 ELIE MATHIEU 00:59:04 228
61 BRUTUS DIDIER 00:59:06 31
62 SUKHAI SATYAJEETSINGH 00:59:43 193
63 MUNGROO ASHLEY 00:59:48 137
64 AVINASH MATTAROOA 01:00:08 16
65 MANUEL CHRISTOPHER 01:00:16 126
66 LAW MIN ANDREW 01:00:53 105
67 ROUSSEL KURT 01:01:33 172
68 KAN WAH OLIVIA KATE 01:01:42 7 F 97
69 INRIT SUNTASH 01:01:44 219
70 PUGO SARVESH 01:01:57 156
71 CERVEAUX HERLAND 01:01:57 36
72 TSE CHUNG HOI DENIS 01:02:00 203
73 BICKEL MATHIEU 01:02:15 231
74 DEVIENNE BELLEPEAU ARIANNE 01:02:28 8 F 53
75 LUCHMUN BRYUNO 01:02:32 226
76 BEGUIER CEDRIC 01:03:34 21
77 NAVETTE ROBERT EMMANUEL 01:03:35 140
78 AH YEN TOMMY 01:03:38 4
79 BISSOONAUTH SORAJ 01:03:51 26
80 WONG ADRIEN 01:03:54 213
81 RAMSAHYE KERVIN 01:04:00 162
82 RUTNOO OOMAJEE 01:04:10 175
83 QUENETTE JULIEN 01:04:20 157
84 CHEONG JULIA 01:04:28 9 F 40
85 DEVIENNE ANABELLE 01:04:38 10 F 52
86 GOMES DA COSTA VIRGINIE 01:05:03 11 F 74
87 SEBLIN VANESSA 01:05:32 12 F 185
88 STEPHANE MATHIEU 01:05:46 227
89 JULIE RICARDO 01:05:57 94
90 MANVAC LOUIS GUILLAUME 01:06:17 127
91 SEERUNGUM SATYEN 01:06:19 186
92 AKIEDA CODRON MIYUKI 01:06:57 13 F 6
93 LESTE DANIEL 01:07:09 110
94 PAUL DENIS 01:07:12 149
95 HEUCLIN MARIE ANNE 01:07:27 14 F 80
96 HEUCLIN ANDRE 01:07:28 81
97 GOPAL PRAKASH 01:07:34 75
98 RIBAL JENNIFER 01:07:37 15 F 168
99 ELLENGEN MATT 01:08:25 65
100 RUJKOOMAR JANESS 01:08:30 174
101 MOHABIR SANDESH 01:08:33 132
102 WALTER AIMELINE 01:08:42 16 F 210
103 TADEBOIS BRUNO 01:08:53 198
104 DUPRE GILIANE 01:09:24 17 F 60
105 LIM KONG STEPHANE 01:09:28 114
106 SAYEGH OLIVIER 01:09:30 183
107 SAYEGH DeBORAH 01:09:30 18 F 184
108 NOBIS ZEUS 01:09:35 232
109 PHILIPPE ROBERT 01:10:01 153
110 BOOLELL ASHVIN 01:10:10 29
111 DOSONYEE SOOYASH 01:10:17 58
112 LALJI JITENDIYA 01:10:36 103
113 ANTHONY MICHAEL 01:10:38 10
114 RAWOTEEA DOMINIQUE 01:10:40 166
115 CHOW AH HU MICHAEL 01:10:41 41
116 NOYAN GUILLAUME 01:11:03 144
117 ALBERT MARIO 01:11:04 7
118 AH YEN DOMINIQUE NG TIN YUN 01:11:33 5
119 LAI PATRICK 01:12:21 102
120 HAN MUI KATELYN 01:12:22 19 F 77
121 PARESARAMDOO KAMINI 01:12:24 20 F 148
122 BONNET DANIEL 01:12:40 28
123 FROGET LUCAS 01:12:59 71
124 RUHOMAR RAVI 01:13:06 173
125 ST PAUL BERNADETTE 01:13:08 192
126 SURROOP PRAVESH 01:13:10 197
127 NEMORIN PATRICIA 01:13:39 141
128 RAMSAMY TANIA 01:13:41 164
129 GRENOUILLE ISABELLE 01:13:52 76
130 PAWAN KUMAR SEEWOORUTTUN 01:13:56 150
131 HARDY BRUNO 01:14:13 236
132 HARDY LOIC 01:14:15 235
133 SAM SOON NEIL 01:14:31 180
134 LEE ESTELLE 01:14:33 108
135 HASSLER GUY 01:15:06 79
136 BERTIN IRVIN 01:15:09 22
137 LUTCHMUN THASHVEEN 01:15:12 118
138 PAPET CINDY 01:15:16 147
139 LESTE LOUIS 01:15:20 111
140 TROUSSEQUIN DORIANNE 01:15:28 202
141 DURHONE ARNAUD 01:15:52 61
142 NERAJ GOBIN 01:15:53 142
143 BETSY DIDIER 01:16:18 23
144 JULIE VINCENT 01:17:23 95
145 ESSOO SOUVAARNA 01:17:31 67
146 BIERHAUS SVEN 01:17:43 25
147 AMSALLEM ESTHER 01:17:46 8
148 PHALLAPAH ROUBIH 01:17:51 222
149 ST BERTIN MELWYN 01:17:52 191
150 HOW HONG SABRINA 01:17:54 84
151 DOOKY KIRTEE 01:17:57 57
152 Jerry Lyvail CHARLES 01:18:02 92
153 DOWLUT PREET 01:18:19 59
154 ESAU CALVIN 01:18:27 66
155 ANTUNEE NOOTOO 01:18:32 241
156 DE ROBILLARD AURELIE 01:18:32 49
157 SALICK AJAY 01:19:01 177
158 PAPET PATRICK 01:19:19 146
159 SAM SOON SOPHIE 01:19:22 179
160 MOIKEENAH JEFFREY 01:20:01 133
161 DHALLADOO YESHMEETA 01:20:54 55
162 ROUSSEL PIERRE 01:21:11 171
163 IYEMPERMALL WENDY 01:21:55 87
164 SING FAT AUDREY 01:22:22 188
165 YOUNG SARAH 01:22:57 216
166 AUGUSTIN JEAN MICHEL 01:24:23 13
167 JANNIN SOPHIE 01:24:24 89
168 JEELALL BHAVNA 01:24:26 91
169 LUFOR LOUIS FABRICE 01:26:18 225
170 DEVION SALLY ANN 01:26:39 54
171 JUGOO PARWIZA 01:26:56 93
172 JHOWRY PRAVISH 01:27:20 240
173 HARDY BRUNO 01:27:21 236
174 SEEVATHIAN WESLEY 01:27:23 187
175 AUROOMOOGUM PERENJORDEE 01:27:32 15
176 SAM ROHUNSINGH 01:27:33 178
177 LUXIMON RAJSHREE 01:27:52 121
178 LEUNG SHOW BERNARD 01:29:09 112
179 BOUIC ROBERT 01:29:16 30
180 RAMOS ANGIE 01:29:34 161
181 MACAQUE JASON 01:29:37 122
182 WEBB KELLY 01:29:47 212
183 YAGAPEN JEAN HUGUES GABRIEL 01:30:18 215
184 RAMSAMY TANIA 01:30:19 164
185 CeSARINE G.S RUDOLPH 01:31:57 37
186 TADEBOIS YUSHNA 01:32:18 199
187 SUMBOO SHAILASIA 01:34:27 195
188 FELIX FLORINA 01:34:28 68
189 VICTOIRE FReDeRICK 01:35:08 208
190 SALAMUT FARMEEN 01:35:09 176
191 VAOURE HOLDY 01:35:40 217
192 FLORE CHRISTIAN 01:36:23 69
193 JHOWRY PRAVISH 01:38:51 239
194 VALERY CHRISTIANE 01:41:18 205
195 LEBON DESIRELLA 01:41:19 107
196 LUCKUNSING NEILESH 01:46:32 117
197 SUMBOO SHALINA 01:46:58 194
198 CURPEN SAROJHNEE 01:49:01 47
199 LAHIRE JEAN MICHEL 01:49:03 101


ReferencementCe site est listé dans la catégorie Sport : Sports extrêmes Dictionnaire
| Accueil | La Réunion  Vue du ciel | Météo | Cyclones | Volcan | Cirques de Mafate , Cilaos , Salazie | Photos Randonnées | Randonnées Réunion: Randos Espiègle , Courses montagne | Diagonale des Fous |  Marathon des Sables | Voyages Les stats du site | Fonds écran | Plan du site | Blog de runraid | Galerie photos Sport Réunion |